Regional Weather Roundup
Issued by NWS

Home | Current Version | Previous Version | Graphics & Text | Print | Product List | Glossary On
Versions: 1 2 3 4 5 6 7 8 9 10 11 12 13 14 15 16 17 18 19 20 21 22 23 24 25 26 27 28 29 30 31 32 33 34 35 36 37 38 39 40 41 42 43 44 45 46 47 48 49 50
000
ASUS43 KDTX 292010
RWRMI
MICHIGAN HOURLY REGIONAL WEATHER ROUNDUP
NATIONAL WEATHER SERVICE DETROIT/PONTIAC MI
400 PM EDT FRI MAY 29 2015

NOTE: "FAIR" INDICATES FEW OR NO CLOUDS BELOW 12,000 FEET WITH NO
SIGNIFICANT WEATHER AND/OR OBSTRUCTION TO VISIBILITY.

MIZ047>049-052>055-059>063-066>070-074>076-081>083-292100-
SOUTHEAST LOWER MICHIGAN

CITY           SKY/WX    TMP DP  RH WIND       PRES   REMARKS
ADRIAN         PTSUNNY   82  64  54 SW15      30.05F
ALMA           MOSUNNY   84  61  45 S9        29.99F
ANN ARBOR      MOSUNNY   81  67  62 S9G16     30.04F
BAD AXE        PTSUNNY   79  62  56 S21       30.03F
CARO           PTSUNNY   82  64  54 S15G23    30.02F
DETROIT CITY   MOSUNNY   77  68  73 S9        30.07F
DETROIT        PTSUNNY   79  69  71 SE8       30.06F
FLINT          MOSUNNY   83  66  56 S14       30.04F
GROSSE ILE     MOSUNNY   73  68  83 S5        30.05F
HILLSDALE      MOSUNNY   83  62  50 S10       30.05F
HOWELL         MOSUNNY   80  64  58 S14       30.03F

CITY           SKY/WX    TMP DP  RH WIND       PRES   REMARKS
JACKSON        MOSUNNY   82  65  56 S10       30.03F
LAMBERTVILLE   PTSUNNY   82  64  54 S8        30.06F
LANSING        MOSUNNY   83  64  52 S14       30.00F
LAPEER         FAIR      78  62  58 SE12G18   30.05F
MASON          MOSUNNY   79  64  60 S13       30.02F
MONROE         MOSUNNY   79  70  73 SE6       30.04F
MT. CLEMENS    MOSUNNY   74  69  85 SE9       30.06F
PONTIAC        PTSUNNY   78  66  66 SE13      30.05F
PORT HOPE        N/A     71  63  75 SE14      30.00F
PORT HURON     CLOUDY    72  68  88 S7        30.08F
TRI CITIES     MOSUNNY   85  62  46 S12       29.99F
MIDLAND        FAIR      84  61  45 S8G17     29.98F
TROY           PTSUNNY   76  69  78 S7        30.08F
SAGINAW HB     MOSUNNY   82  63  51 S15       30.00F
$$
MIZ043>046-050>051-056>058-064>065-071>073-077>080-292100-
SOUTHWEST LOWER MICHIGAN

CITY           SKY/WX    TMP DP  RH WIND       PRES   REMARKS
BATTLE CREEK   MOSUNNY   84  63  49 S13       30.01F
BENTON HARBOR  CLOUDY    73  70  90 VRB3      29.99F
BIG RAPIDS     PTSUNNY   80  60  50 SW7G17    29.98S
COLDWATER      MOSUNNY   82  60  47 SW10G16   30.02F
FREMONT        FAIR      81  60  48 SW14      29.97F
HOLLAND        LGT RAIN  72  68  87 SW14      30.03R FOG
GRAND RAPIDS   LGT RAIN  80  64  58 S8        29.98F
IONIA          PTSUNNY   84  59  42 SW10G18   29.98F
KALAMAZOO      MOSUNNY   83  63  50 S14G24    30.00F
LUDINGTON      PTSUNNY   78  68  72 SW13      29.96F
MARSHALL       MOSUNNY   84  64  50 S8G18     30.01F
MOUNT PLEASANT MOSUNNY   83  59  44 S12       29.98F
MUSKEGON       LGT RAIN  80  64  58 SW15      29.97F
SOUTH HAVEN    LGT RAIN  69  67  94 W3        30.00F
$$
MIZ016>042-292100-
NORTHERN LOWER MICHIGAN

CITY           SKY/WX    TMP DP  RH WIND       PRES   REMARKS
ALPENA         PTSUNNY   82  61  48 SW8       29.98F
BEAVER ISLAND  CLOUDY    71  60  69 S8G16     29.94F
BELLAIRE       CLOUDY    73  66  77 S5        29.97F
CADILLAC       MOSUNNY   74  67  79 SE3       29.98F
CHARLEVOIX     CLOUDY    74  65  75 SE9       29.99F
FRANKFORT      PTSUNNY   79  62  55 SW8       29.94F
GAYLORD        CLOUDY    67  66  97 S9        30.01F
GRAYLING       LGT RAIN  65  63  93 CALM      30.03F
HARBOR SPRINGS CLOUDY    68  63  85 E5        29.98F
HOUGHTON LAKE  PTSUNNY   74  60  61 NW9       30.01F
MANISTEE       PTSUNNY   77  64  65 S9        29.95F
OSCODA         MOSUNNY   84  61  45 S20       29.99F
PELLSTON       CLOUDY    68  62  81 SE12      29.98F
ROGERS CITY    HVY RAIN  67  65  91 W8G20     30.03S
TRAVERSE CITY  PTSUNNY   78  66  66 S6        29.95F
$$
MIZ007>008-015-292100-
EASTERN UPPER MICHIGAN

CITY           SKY/WX    TMP DP  RH WIND       PRES   REMARKS
KINROSS        CLOUDY    66  64  94 S7        29.96F
MACKINAC ISLAN CLOUDY    66  60  82 SE6       29.97F
NEWBERRY       CLOUDY    64  59  83 S10       29.92F
S. S. MARIE    LGT RAIN  67  63  87 SE6       29.95F
MUNISING         N/A     75  61  61 S15G24    29.84F
$$
MIZ004>006-011>014-085-292100-
CENTRAL UPPER MICHIGAN

CITY           SKY/WX    TMP DP  RH WIND       PRES   REMARKS
MANISTIQUE     CLOUDY    53  50  91 S9        29.93F FOG
ESCANABA       CLOUDY    64  55  72 S8G17     29.88F
MENOMINEE      CLOUDY    75  63  64 SW13      29.87F
SAWYER-GWINN   CLOUDY    75  61  60 S15G25    29.85F
$$
MIZ001>003-009>011-084-292100-
WESTERN UPPER MICHIGAN

CITY           SKY/WX    TMP DP  RH WIND       PRES   REMARKS
IRON MOUNTAIN  CLOUDY    79  59  50 SW10G22   29.85F
HOUGHTON       CLOUDY    64  61  90 W17       29.85S
COPPER HARBOR    N/A     57  55  93 N3        29.84S
IRONWOOD       CLOUDY    64  61  88 NW12      29.87R
$$

ABBREVIATIONS USED IN REMARKS
   TC - TEMPERATURE IN CELSIUS
  WCI - WIND CHILL INDEX
   HX - HEAT INDEX
  VSB - VISIBILITY




USA.gov is the U.S. government's official web portal to all federal, state and local government web resources and services.